N978PJ TNCM-GOBD

Flight info

Callsign N978PJ
Flight time 5h 23m
Altitude 45000
Route TNCM/10 MODOR2 ELOPO OTUSU ELJEZ 21N/050W 23N/040W 22N/036W ERNEK EVKAS BVT MOGSA PIVSA PIVS1D ILSZ01 DEPAL GOBD/01
Aircraft C750/M-SDE3FGIJ1KRWXY/LB1

Departure

Time 2026-04-25 12:56
Airport Princess Juliana International Airport (TNCM)

Arrival

Time 2026-04-25 18:20
Airport Blaise Diagne International Airport (GOBD)
Time Latitude Longitude Altitude Speed Heading
2026-04-25 12:27 18.04178 -63.11241 -2 ft 0 kts 168°
2026-04-25 12:52 18.04181 -63.11242 25 ft 3 kts 166°
2026-04-25 12:52 18.04176 -63.11235 25 ft 3 kts 146°
2026-04-25 12:52 18.04156 -63.11228 25 ft 0 kts 175°
2026-04-25 12:53 18.04149 -63.11229 26 ft 3 kts 191°
2026-04-25 12:53 18.04136 -63.11263 24 ft 8 kts 262°
2026-04-25 12:53 18.04180 -63.11307 25 ft 13 kts 350°
2026-04-25 12:53 18.04234 -63.11370 25 ft 14 kts 266°
2026-04-25 12:54 18.04219 -63.11473 25 ft 15 kts 246°
2026-04-25 12:54 18.04149 -63.11568 25 ft 16 kts 232°
2026-04-25 12:54 18.04084 -63.11648 24 ft 10 kts 213°
2026-04-25 12:54 18.04063 -63.11658 24 ft 0 kts 195°
2026-04-25 12:55 18.04062 -63.11658 24 ft 2 kts 195°
2026-04-25 12:55 18.04038 -63.11660 24 ft 9 kts 172°
2026-04-25 12:55 18.03991 -63.11604 24 ft 3 kts 81°
2026-04-25 12:55 18.03991 -63.11603 24 ft 0 kts 81°
2026-04-25 12:56 18.04002 -63.11527 24 ft 43 kts 82°
2026-04-25 12:56 18.04097 -63.10855 24 ft 134 kts 82°
2026-04-25 12:56 18.04252 -63.09748 221 ft 162 kts 83°
2026-04-25 12:56 18.04364 -63.08523 724 ft 170 kts 96°
2026-04-25 12:57 18.03973 -63.07367 1430 ft 171 kts 123°
2026-04-25 12:57 18.03199 -63.06366 2070 ft 184 kts 135°
2026-04-25 12:57 18.02172 -63.05510 2792 ft 195 kts 152°
2026-04-25 12:57 18.00871 -63.04944 3352 ft 211 kts 159°
2026-04-25 12:58 17.99407 -63.04365 3740 ft 237 kts 162°
2026-04-25 12:58 17.97810 -63.03877 4593 ft 239 kts 163°
2026-04-25 12:58 17.96428 -63.02884 5315 ft 247 kts 134°
2026-04-25 12:58 17.95392 -63.01440 6179 ft 249 kts 128°
2026-04-25 12:59 17.94390 -62.99932 6914 ft 255 kts 127°
2026-04-25 12:59 17.93378 -62.98392 7758 ft 257 kts 127°
2026-04-25 12:59 17.92357 -62.96838 8627 ft 261 kts 127°
2026-04-25 12:59 17.91317 -62.95261 9490 ft 264 kts 127°
2026-04-25 13:00 17.90263 -62.93661 10246 ft 269 kts 127°
2026-04-25 13:00 17.89901 -62.93113 10483 ft 270 kts 127°
2026-04-25 13:00 17.88103 -62.90384 11648 ft 277 kts 128°
2026-04-25 13:00 17.87001 -62.88713 12335 ft 280 kts 128°
2026-04-25 13:01 17.85884 -62.87019 12901 ft 285 kts 128°
2026-04-25 13:01 17.84749 -62.85299 13514 ft 288 kts 128°
2026-04-25 13:01 17.83602 -62.83560 14067 ft 292 kts 128°
2026-04-25 13:01 17.82440 -62.81800 14602 ft 295 kts 128°
2026-04-25 13:02 17.81261 -62.80015 15008 ft 304 kts 128°
2026-04-25 13:02 17.80005 -62.78120 15082 ft 324 kts 128°
2026-04-25 13:02 17.78767 -62.76232 16121 ft 302 kts 128°
2026-04-25 13:02 17.77567 -62.74411 16677 ft 307 kts 128°
2026-04-25 13:03 17.76333 -62.72557 17210 ft 312 kts 128°
2026-04-25 13:03 17.75091 -62.70681 17807 ft 315 kts 128°
2026-04-25 13:03 17.73839 -62.68783 18374 ft 318 kts 128°
2026-04-25 13:03 17.72571 -62.66865 18895 ft 321 kts 128°
2026-04-25 13:04 17.71294 -62.64937 19433 ft 324 kts 128°
2026-04-25 13:04 17.70002 -62.62986 19974 ft 327 kts 128°
2026-04-25 13:04 17.68704 -62.61024 20532 ft 329 kts 129°
2026-04-25 13:04 17.67392 -62.59043 21084 ft 332 kts 129°
2026-04-25 13:05 17.66074 -62.57039 21628 ft 336 kts 128°
2026-04-25 13:05 17.65156 -62.54747 22041 ft 351 kts 104°
2026-04-25 13:05 17.64998 -62.52186 22662 ft 354 kts 93°
2026-04-25 13:05 17.65044 -62.49585 23201 ft 359 kts 91°
2026-04-25 13:06 17.65114 -62.46959 23695 ft 363 kts 91°
2026-04-25 13:06 17.65139 -62.44305 24145 ft 366 kts 92°
2026-04-25 13:06 17.65146 -62.41627 24593 ft 369 kts 92°
2026-04-25 13:06 17.65173 -62.38923 25040 ft 373 kts 92°
2026-04-25 13:07 17.65211 -62.36194 25496 ft 376 kts 92°
2026-04-25 13:07 17.65240 -62.33446 25948 ft 379 kts 92°
2026-04-25 13:07 17.65262 -62.30669 26409 ft 382 kts 92°
2026-04-25 13:07 17.65288 -62.27870 26867 ft 386 kts 92°
2026-04-25 13:08 17.65317 -62.25049 27318 ft 389 kts 92°
2026-04-25 13:08 17.65345 -62.22205 27767 ft 392 kts 92°
2026-04-25 13:08 17.65370 -62.19329 28223 ft 395 kts 92°
2026-04-25 13:08 17.65396 -62.16438 28675 ft 399 kts 92°
2026-04-25 13:09 17.65423 -62.13518 29117 ft 402 kts 92°
2026-04-25 13:09 17.65449 -62.10619 29549 ft 405 kts 92°
2026-04-25 13:09 17.65475 -62.07654 29977 ft 408 kts 92°
2026-04-25 13:09 17.65500 -62.04663 30355 ft 411 kts 92°
2026-04-25 13:10 17.65525 -62.01656 30716 ft 414 kts 92°
2026-04-25 13:10 17.65550 -61.98627 31075 ft 417 kts 92°
2026-04-25 13:10 17.65575 -61.95578 31423 ft 420 kts 92°
2026-04-25 13:10 17.65599 -61.92512 31771 ft 423 kts 93°
2026-04-25 13:11 17.65623 -61.89414 32119 ft 425 kts 93°
2026-04-25 13:11 17.65647 -61.86307 32463 ft 428 kts 93°
2026-04-25 13:11 17.65663 -61.84193 32694 ft 430 kts 93°
2026-04-25 13:11 17.65693 -61.80024 33139 ft 434 kts 93°
2026-04-25 13:12 17.65708 -61.77880 33378 ft 436 kts 93°
2026-04-25 13:12 17.65731 -61.74694 33702 ft 439 kts 93°
2026-04-25 13:12 17.65753 -61.71484 34032 ft 441 kts 93°
2026-04-25 13:12 17.65767 -61.69348 34222 ft 443 kts 93°
2026-04-25 13:13 17.65796 -61.65015 34632 ft 446 kts 93°
2026-04-25 13:13 17.65817 -61.61756 34933 ft 448 kts 94°
2026-04-25 13:13 17.65837 -61.58482 35233 ft 450 kts 94°
2026-04-25 13:13 17.65857 -61.55186 35535 ft 453 kts 94°
2026-04-25 13:14 17.65876 -61.51885 35840 ft 455 kts 94°
2026-04-25 13:14 17.65895 -61.48559 36121 ft 457 kts 94°
2026-04-25 13:14 17.65914 -61.45216 36418 ft 459 kts 94°
2026-04-25 13:14 17.65932 -61.41865 36715 ft 461 kts 94°
2026-04-25 13:15 17.65949 -61.38489 37005 ft 464 kts 94°
2026-04-25 13:15 17.65967 -61.35101 37316 ft 465 kts 94°
2026-04-25 13:15 17.65983 -61.31699 37593 ft 468 kts 94°
2026-04-25 13:15 17.65999 -61.28279 37875 ft 471 kts 94°
2026-04-25 13:16 17.66014 -61.24888 38163 ft 473 kts 94°
2026-04-25 13:16 17.66029 -61.21431 38453 ft 475 kts 94°
2026-04-25 13:16 17.66044 -61.17913 38728 ft 477 kts 93°
2026-04-25 13:16 17.66058 -61.14483 39059 ft 477 kts 93°
2026-04-25 13:17 17.66072 -61.11010 39403 ft 476 kts 93°
2026-04-25 13:17 17.66084 -61.07542 39728 ft 476 kts 93°
2026-04-25 13:17 17.66096 -61.04031 40061 ft 475 kts 93°
2026-04-25 13:17 17.66108 -61.00618 40378 ft 475 kts 93°
2026-04-25 13:18 17.66119 -60.97153 40698 ft 474 kts 93°
2026-04-25 13:18 17.66129 -60.93697 41008 ft 474 kts 93°
2026-04-25 13:18 17.66138 -60.90241 41315 ft 474 kts 93°
2026-04-25 13:18 17.66147 -60.86790 41611 ft 473 kts 93°
2026-04-25 13:19 17.66156 -60.83341 41905 ft 473 kts 93°
2026-04-25 13:19 17.66163 -60.79897 42181 ft 472 kts 93°
2026-04-25 13:19 17.66171 -60.76451 42453 ft 472 kts 93°
2026-04-25 13:19 17.66175 -60.74170 42631 ft 472 kts 93°
2026-04-25 13:20 17.66183 -60.69574 42997 ft 471 kts 93°
2026-04-25 13:20 17.66188 -60.66143 43240 ft 471 kts 93°
2026-04-25 13:20 17.66193 -60.62717 43467 ft 471 kts 93°
2026-04-25 13:20 17.66197 -60.59284 43693 ft 471 kts 93°
2026-04-25 13:21 17.66201 -60.55852 43929 ft 470 kts 93°
2026-04-25 13:21 17.66204 -60.52425 44165 ft 470 kts 93°
2026-04-25 13:21 17.66206 -60.49004 44391 ft 469 kts 93°
2026-04-25 13:21 17.66208 -60.45583 44605 ft 469 kts 93°
2026-04-25 13:22 17.66209 -60.42167 44796 ft 468 kts 93°
2026-04-25 13:22 17.66210 -60.38755 44952 ft 468 kts 93°
2026-04-25 13:23 17.66207 -60.28407 45010 ft 479 kts 93°
2026-04-25 13:23 17.66203 -60.21366 45028 ft 487 kts 93°
2026-04-25 13:24 17.66196 -60.14204 45024 ft 495 kts 93°
2026-04-25 13:24 17.66186 -60.06969 45026 ft 503 kts 93°
2026-04-25 13:25 17.66174 -59.99582 45026 ft 511 kts 93°
2026-04-25 13:25 17.66158 -59.92087 45023 ft 518 kts 93°
2026-04-25 13:26 17.66140 -59.84488 45024 ft 525 kts 92°
2026-04-25 13:26 17.66118 -59.76784 45028 ft 531 kts 92°
2026-04-25 13:27 17.66093 -59.68944 45032 ft 537 kts 92°
2026-04-25 13:27 17.66064 -59.61090 45027 ft 541 kts 92°
2026-04-25 13:28 17.66033 -59.53187 45026 ft 544 kts 92°
2026-04-25 13:28 17.65997 -59.45223 45027 ft 547 kts 92°
2026-04-25 13:29 17.65959 -59.37242 45031 ft 549 kts 92°
2026-04-25 13:29 17.65917 -59.29234 45028 ft 550 kts 92°
2026-04-25 13:30 17.65848 -59.17184 45028 ft 552 kts 92°
2026-04-25 13:31 17.65771 -59.05155 45032 ft 553 kts 92°
2026-04-25 13:31 17.65716 -58.97087 45040 ft 553 kts 92°
2026-04-25 13:32 17.65657 -58.89018 45025 ft 554 kts 92°
2026-04-25 13:32 17.65595 -58.80940 45029 ft 554 kts 92°
2026-04-25 13:33 17.65530 -58.72859 45028 ft 554 kts 92°
2026-04-25 13:33 17.65462 -58.64776 45028 ft 554 kts 92°
2026-04-25 13:34 17.65390 -58.56696 45029 ft 554 kts 92°
2026-04-25 13:34 17.65315 -58.48614 45033 ft 554 kts 92°
2026-04-25 13:35 17.65236 -58.40528 45036 ft 554 kts 92°
2026-04-25 13:35 17.65154 -58.32447 45034 ft 554 kts 92°
2026-04-25 13:36 17.65069 -58.24364 45040 ft 554 kts 92°
2026-04-25 13:36 17.64981 -58.16285 45039 ft 554 kts 92°
2026-04-25 13:37 17.64889 -58.08203 45039 ft 554 kts 92°
2026-04-25 13:37 17.64794 -58.00119 45043 ft 554 kts 92°
2026-04-25 13:38 17.64696 -57.92026 45039 ft 554 kts 92°
2026-04-25 13:38 17.64594 -57.83953 45040 ft 554 kts 92°
2026-04-25 13:39 17.64490 -57.75869 45037 ft 554 kts 92°
2026-04-25 13:39 17.64382 -57.67789 45037 ft 554 kts 92°
2026-04-25 13:40 17.64270 -57.59710 45033 ft 555 kts 92°
2026-04-25 13:40 17.64715 -57.51646 45029 ft 556 kts 79°
2026-04-25 13:41 17.67156 -57.43983 45030 ft 554 kts 62°
2026-04-25 13:41 17.71449 -57.37348 45044 ft 548 kts 46°
2026-04-25 13:42 17.76678 -57.31542 45045 ft 547 kts 43°
2026-04-25 13:42 17.81544 -57.25366 45039 ft 551 kts 52°
2026-04-25 13:43 17.85988 -57.18805 45050 ft 551 kts 50°
2026-04-25 13:43 17.90826 -57.12588 45046 ft 550 kts 49°
2026-04-25 13:44 17.95420 -57.06144 45045 ft 551 kts 51°
2026-04-25 13:44 18.00023 -56.99774 45022 ft 553 kts 55°
2026-04-25 13:45 18.03018 -56.93762 45039 ft 555 kts 65°
2026-04-25 13:45 18.06676 -56.85096 45046 ft 555 kts 62°
2026-04-25 13:46 18.10126 -56.77907 45045 ft 556 kts 63°
2026-04-25 13:46 18.13341 -56.70515 45044 ft 556 kts 63°
2026-04-25 13:47 18.16742 -56.63217 45052 ft 556 kts 63°
2026-04-25 13:47 18.20014 -56.55848 45052 ft 556 kts 63°
2026-04-25 13:48 18.23363 -56.48519 45055 ft 556 kts 63°
2026-04-25 13:48 18.26668 -56.41153 45046 ft 557 kts 64°
2026-04-25 13:49 18.29989 -56.33803 45050 ft 557 kts 63°
2026-04-25 13:49 18.33306 -56.26431 45053 ft 557 kts 63°
2026-04-25 13:50 18.36619 -56.19061 45058 ft 557 kts 63°
2026-04-25 13:50 18.39933 -56.11685 45037 ft 558 kts 63°
2026-04-25 13:51 18.43243 -56.04302 45042 ft 557 kts 63°
2026-04-25 13:51 18.46552 -55.96919 45050 ft 557 kts 63°
2026-04-25 13:52 18.49856 -55.89531 45050 ft 557 kts 63°
2026-04-25 13:52 18.53154 -55.82153 45053 ft 557 kts 64°
2026-04-25 13:53 18.56449 -55.74767 45054 ft 557 kts 64°
2026-04-25 13:53 18.59745 -55.67375 45056 ft 557 kts 64°
2026-04-25 13:54 18.63034 -55.59985 45060 ft 557 kts 64°
2026-04-25 13:54 18.66323 -55.52590 45053 ft 557 kts 64°
2026-04-25 13:55 18.69605 -55.45197 45057 ft 556 kts 64°
2026-04-25 13:55 18.72882 -55.37807 45060 ft 556 kts 64°
2026-04-25 13:56 18.75606 -55.31658 45055 ft 556 kts 64°
2026-04-25 13:56 18.78877 -55.24265 45060 ft 556 kts 64°
2026-04-25 13:57 18.82147 -55.16865 45062 ft 556 kts 64°
2026-04-25 13:57 18.85411 -55.09469 45063 ft 556 kts 64°
2026-04-25 13:58 18.88671 -55.02072 45062 ft 556 kts 64°
2026-04-25 13:58 18.91929 -54.94671 45063 ft 556 kts 64°
2026-04-25 13:59 18.95184 -54.87268 45067 ft 556 kts 64°
2026-04-25 13:59 18.98436 -54.79859 45060 ft 556 kts 64°
2026-04-25 14:00 19.01138 -54.73699 45058 ft 556 kts 64°
2026-04-25 14:00 19.04934 -54.65032 45062 ft 556 kts 64°
2026-04-25 14:01 19.08179 -54.57612 45062 ft 556 kts 64°
2026-04-25 14:01 19.11419 -54.50193 45062 ft 556 kts 64°
2026-04-25 14:02 19.14659 -54.42766 45060 ft 556 kts 64°
2026-04-25 14:02 19.17897 -54.35332 45061 ft 556 kts 64°
2026-04-25 14:03 19.21130 -54.27901 45066 ft 556 kts 64°
2026-04-25 14:03 19.24361 -54.20463 45071 ft 556 kts 64°
2026-04-25 14:04 19.27590 -54.13021 45070 ft 556 kts 64°
2026-04-25 14:04 19.30816 -54.05576 45069 ft 556 kts 64°
2026-04-25 14:05 19.34041 -53.98124 45058 ft 557 kts 64°
2026-04-25 14:05 19.37266 -53.90663 45058 ft 557 kts 64°
2026-04-25 14:06 19.40486 -53.83202 45055 ft 557 kts 64°
2026-04-25 14:06 19.43703 -53.75737 45059 ft 557 kts 64°
2026-04-25 14:07 19.46919 -53.68266 45063 ft 557 kts 64°
2026-04-25 14:07 19.50132 -53.60791 45068 ft 557 kts 64°
2026-04-25 14:08 19.53341 -53.53315 45073 ft 557 kts 64°
2026-04-25 14:08 19.56548 -53.45836 45073 ft 557 kts 64°
2026-04-25 14:09 19.59755 -53.38344 45071 ft 558 kts 64°
2026-04-25 14:09 19.62955 -53.30858 45070 ft 558 kts 64°
2026-04-25 14:10 19.66155 -53.23362 45072 ft 558 kts 64°
2026-04-25 14:10 19.69352 -53.15864 45071 ft 558 kts 64°
2026-04-25 14:11 19.72547 -53.08362 45074 ft 558 kts 64°
2026-04-25 14:11 19.75738 -53.00856 45079 ft 558 kts 64°
2026-04-25 14:12 19.78923 -52.93354 45072 ft 558 kts 64°
2026-04-25 14:12 19.82111 -52.85836 45073 ft 558 kts 65°
2026-04-25 14:13 19.85294 -52.78317 45075 ft 558 kts 65°
2026-04-25 14:13 19.88474 -52.70797 45077 ft 558 kts 65°
2026-04-25 14:14 19.91651 -52.63274 45077 ft 558 kts 65°
2026-04-25 14:14 19.94825 -52.55746 45080 ft 558 kts 65°
2026-04-25 14:15 19.97974 -52.48267 45075 ft 558 kts 65°
2026-04-25 14:15 20.01144 -52.40729 45071 ft 558 kts 65°
2026-04-25 14:16 20.04332 -52.33136 45067 ft 559 kts 65°
2026-04-25 14:16 20.07497 -52.25587 45070 ft 559 kts 65°
2026-04-25 14:17 20.10660 -52.18033 45063 ft 559 kts 65°
2026-04-25 14:17 20.13799 -52.10525 45071 ft 559 kts 65°
2026-04-25 14:18 20.16978 -52.02911 45079 ft 559 kts 65°
2026-04-25 14:18 20.20131 -51.95347 45082 ft 559 kts 65°
2026-04-25 14:19 20.23284 -51.87772 45082 ft 560 kts 65°
2026-04-25 14:19 20.26435 -51.80194 45082 ft 560 kts 65°
2026-04-25 14:20 20.29584 -51.72608 45073 ft 560 kts 65°
2026-04-25 14:20 20.32711 -51.65063 45071 ft 560 kts 65°
2026-04-25 14:21 20.35856 -51.57466 45071 ft 561 kts 65°
2026-04-25 14:21 20.39021 -51.49808 45073 ft 561 kts 65°
2026-04-25 14:22 20.42162 -51.42198 45067 ft 561 kts 65°
2026-04-25 14:22 20.45301 -51.34580 45068 ft 561 kts 65°
2026-04-25 14:23 20.48436 -51.26960 45069 ft 561 kts 65°
2026-04-25 14:23 20.51570 -51.19333 45080 ft 561 kts 65°
2026-04-25 14:24 20.54680 -51.11755 45084 ft 561 kts 65°
2026-04-25 14:24 20.57808 -51.04120 45075 ft 562 kts 65°
2026-04-25 14:25 20.59899 -50.99009 45075 ft 562 kts 65°
2026-04-25 14:25 20.64057 -50.88833 45080 ft 562 kts 65°
2026-04-25 14:26 20.67179 -50.81178 45071 ft 562 kts 65°
2026-04-25 14:26 20.70299 -50.73516 45069 ft 563 kts 65°
2026-04-25 14:27 20.73418 -50.65847 45063 ft 563 kts 65°
2026-04-25 14:27 20.76533 -50.58175 45071 ft 563 kts 65°
2026-04-25 14:28 20.79645 -50.50499 45075 ft 563 kts 65°
2026-04-25 14:28 20.82756 -50.42814 45069 ft 563 kts 65°
2026-04-25 14:29 20.85863 -50.35128 45085 ft 563 kts 65°
2026-04-25 14:29 20.88966 -50.27439 45081 ft 563 kts 65°
2026-04-25 14:30 20.92067 -50.19743 45080 ft 564 kts 65°
2026-04-25 14:30 20.96713 -50.08191 45078 ft 564 kts 65°
2026-04-25 14:31 20.99773 -50.00469 45069 ft 564 kts 68°
2026-04-25 14:31 21.01821 -49.92361 45079 ft 564 kts 78°
2026-04-25 14:32 21.03635 -49.84193 45084 ft 565 kts 75°
2026-04-25 14:32 21.05603 -49.76049 45083 ft 565 kts 76°
2026-04-25 14:33 21.07427 -49.67867 45082 ft 565 kts 76°
2026-04-25 14:33 21.09363 -49.59708 45077 ft 565 kts 76°
2026-04-25 14:34 21.11208 -49.51523 45086 ft 565 kts 76°
2026-04-25 14:34 21.13111 -49.43352 45092 ft 565 kts 76°
2026-04-25 14:35 21.14969 -49.35167 45090 ft 566 kts 76°
2026-04-25 14:35 21.16850 -49.26985 45082 ft 566 kts 76°
2026-04-25 14:36 21.18712 -49.18790 45077 ft 566 kts 76°
2026-04-25 14:36 21.20581 -49.10593 45070 ft 566 kts 76°
2026-04-25 14:37 21.22440 -49.02391 45086 ft 566 kts 76°
2026-04-25 14:37 21.24298 -48.94190 45088 ft 566 kts 76°
2026-04-25 14:38 21.26151 -48.85984 45084 ft 566 kts 76°
2026-04-25 14:38 21.27689 -48.79161 45085 ft 567 kts 76°
2026-04-25 14:39 21.29536 -48.70948 45086 ft 567 kts 76°
2026-04-25 14:39 21.31380 -48.62726 45074 ft 567 kts 76°
2026-04-25 14:40 21.33221 -48.54502 45082 ft 567 kts 76°
2026-04-25 14:40 21.35059 -48.46271 45073 ft 568 kts 76°
2026-04-25 14:41 21.36893 -48.38034 45085 ft 568 kts 76°
2026-04-25 14:41 21.38723 -48.29799 45086 ft 568 kts 76°
2026-04-25 14:42 21.40241 -48.22948 45091 ft 568 kts 76°
2026-04-25 14:42 21.42373 -48.13307 45095 ft 568 kts 76°
2026-04-25 14:43 21.44194 -48.05050 45090 ft 568 kts 76°
2026-04-25 14:43 21.46010 -47.96794 45099 ft 568 kts 76°
2026-04-25 14:44 21.47823 -47.88532 45097 ft 569 kts 76°
2026-04-25 14:44 21.49633 -47.80264 45098 ft 569 kts 76°
2026-04-25 14:45 21.51440 -47.71990 45095 ft 569 kts 76°
2026-04-25 14:45 21.53243 -47.63714 45100 ft 569 kts 76°
2026-04-25 14:46 21.55043 -47.55427 45100 ft 570 kts 76°
2026-04-25 14:46 21.56840 -47.47137 45094 ft 570 kts 76°
2026-04-25 14:47 21.58331 -47.40241 45086 ft 570 kts 76°
2026-04-25 14:47 21.60425 -47.30530 45090 ft 571 kts 76°
2026-04-25 14:48 21.62212 -47.22222 45087 ft 571 kts 76°
2026-04-25 14:48 21.63996 -47.13904 45090 ft 571 kts 76°
2026-04-25 14:49 21.65765 -47.05636 45089 ft 571 kts 76°
2026-04-25 14:49 21.67542 -46.97310 45089 ft 572 kts 76°
2026-04-25 14:50 21.69315 -46.88978 45095 ft 572 kts 76°
2026-04-25 14:50 21.71085 -46.80645 45099 ft 572 kts 76°
2026-04-25 14:51 21.72851 -46.72306 45101 ft 572 kts 76°
2026-04-25 14:51 21.74612 -46.63963 45101 ft 572 kts 76°
2026-04-25 14:52 21.76371 -46.55615 45105 ft 572 kts 76°
2026-04-25 14:52 21.77842 -46.48614 45100 ft 573 kts 76°
2026-04-25 14:53 21.79879 -46.38897 45102 ft 573 kts 76°
2026-04-25 14:53 21.81627 -46.30535 45103 ft 573 kts 76°
2026-04-25 14:54 21.83369 -46.22175 45109 ft 573 kts 76°
2026-04-25 14:54 21.85110 -46.13801 45105 ft 573 kts 76°
2026-04-25 14:55 21.86848 -46.05420 45108 ft 573 kts 76°
2026-04-25 14:55 21.88580 -45.97043 45110 ft 573 kts 76°
2026-04-25 14:56 21.90309 -45.88659 45112 ft 573 kts 76°
2026-04-25 14:56 21.92033 -45.80274 45100 ft 574 kts 76°
2026-04-25 14:57 21.93754 -45.71882 45101 ft 574 kts 76°
2026-04-25 14:57 21.95472 -45.63485 45109 ft 574 kts 76°
2026-04-25 14:58 21.97185 -45.55084 45098 ft 574 kts 76°
2026-04-25 14:58 21.98894 -45.46688 45111 ft 574 kts 76°
2026-04-25 14:59 22.00598 -45.38286 45111 ft 574 kts 76°
2026-04-25 14:59 22.02299 -45.29878 45108 ft 574 kts 76°
2026-04-25 15:00 22.03995 -45.21472 45108 ft 574 kts 76°
2026-04-25 15:00 22.05687 -45.13062 45109 ft 574 kts 76°
2026-04-25 15:01 22.07375 -45.04651 45110 ft 574 kts 76°
2026-04-25 15:01 22.09058 -44.96236 45106 ft 574 kts 76°
2026-04-25 15:02 22.10738 -44.87821 45101 ft 574 kts 76°
2026-04-25 15:02 22.12414 -44.79396 45100 ft 574 kts 76°
2026-04-25 15:03 22.14085 -44.70974 45101 ft 574 kts 76°
2026-04-25 15:03 22.15751 -44.62549 45106 ft 574 kts 76°
2026-04-25 15:04 22.17414 -44.54122 45108 ft 574 kts 76°
2026-04-25 15:04 22.19072 -44.45694 45113 ft 574 kts 76°
2026-04-25 15:05 22.20725 -44.37265 45097 ft 575 kts 76°
2026-04-25 15:06 22.23198 -44.24613 45118 ft 574 kts 76°
2026-04-25 15:06 22.24841 -44.16179 45106 ft 574 kts 76°
2026-04-25 15:07 22.26480 -44.07738 45104 ft 574 kts 76°
2026-04-25 15:07 22.28115 -43.99293 45100 ft 575 kts 76°
2026-04-25 15:08 22.29745 -43.90847 45109 ft 575 kts 76°
2026-04-25 15:08 22.31373 -43.82394 45105 ft 575 kts 76°
2026-04-25 15:09 22.32993 -43.73951 45116 ft 575 kts 76°
2026-04-25 15:09 22.35420 -43.61264 45108 ft 575 kts 76°
2026-04-25 15:10 22.37033 -43.52798 45103 ft 575 kts 76°
2026-04-25 15:11 22.39443 -43.40099 45109 ft 575 kts 76°
2026-04-25 15:11 22.41046 -43.31624 45112 ft 576 kts 76°
2026-04-25 15:12 22.43432 -43.18965 45118 ft 576 kts 76°
2026-04-25 15:12 22.44497 -43.13293 45121 ft 576 kts 76°
2026-04-25 15:13 22.47417 -42.97687 45123 ft 576 kts 76°
2026-04-25 15:14 22.48988 -42.89251 45112 ft 577 kts 76°
2026-04-25 15:14 22.50568 -42.80744 45104 ft 577 kts 76°
2026-04-25 15:15 22.52154 -42.72182 45106 ft 577 kts 76°
2026-04-25 15:15 22.53714 -42.63728 45108 ft 577 kts 76°
2026-04-25 15:16 22.55281 -42.55215 45106 ft 577 kts 76°
2026-04-25 15:16 22.57624 -42.42433 45115 ft 577 kts 76°
2026-04-25 15:17 22.59957 -42.29651 45120 ft 577 kts 76°
2026-04-25 15:18 22.61506 -42.21126 45121 ft 577 kts 76°
2026-04-25 15:18 22.63822 -42.08333 45111 ft 577 kts 76°
2026-04-25 15:19 22.64852 -42.02624 45107 ft 577 kts 76°
2026-04-25 15:19 22.66895 -41.91269 45110 ft 577 kts 76°
2026-04-25 15:20 22.68422 -41.82743 45109 ft 577 kts 76°
2026-04-25 15:20 22.69949 -41.74196 45111 ft 577 kts 76°
2026-04-25 15:21 22.71469 -41.65660 45112 ft 577 kts 76°
2026-04-25 15:21 22.72985 -41.57118 45114 ft 577 kts 76°
2026-04-25 15:22 22.74240 -41.50025 45127 ft 577 kts 76°
2026-04-25 15:22 22.75748 -41.41479 45127 ft 577 kts 76°
2026-04-25 15:23 22.77252 -41.32928 45109 ft 578 kts 76°
2026-04-25 15:23 22.78750 -41.24380 45123 ft 577 kts 76°
2026-04-25 15:24 22.80243 -41.15835 45120 ft 578 kts 76°
2026-04-25 15:24 22.81482 -41.08723 45124 ft 578 kts 76°
2026-04-25 15:25 22.83219 -40.98719 45113 ft 578 kts 76°
2026-04-25 15:25 22.84700 -40.90156 45109 ft 578 kts 76°
2026-04-25 15:26 22.86177 -40.81592 45116 ft 578 kts 76°
2026-04-25 15:26 22.87649 -40.73028 45127 ft 578 kts 76°
2026-04-25 15:27 22.89116 -40.64465 45114 ft 578 kts 76°
2026-04-25 15:28 22.91310 -40.51603 45118 ft 578 kts 76°
2026-04-25 15:28 22.92767 -40.43028 45111 ft 578 kts 76°
2026-04-25 15:29 22.94219 -40.34450 45112 ft 578 kts 76°
2026-04-25 15:29 22.95666 -40.25871 45116 ft 578 kts 76°
2026-04-25 15:30 22.97109 -40.17292 45122 ft 578 kts 76°
2026-04-25 15:30 22.98547 -40.08709 45111 ft 578 kts 76°
2026-04-25 15:31 22.99473 -40.00032 45106 ft 582 kts 89°
2026-04-25 15:31 22.98403 -39.91330 45114 ft 583 kts 104°
2026-04-25 15:32 22.96006 -39.82934 45142 ft 582 kts 110°
2026-04-25 15:32 22.93832 -39.74467 45111 ft 583 kts 103°
2026-04-25 15:33 22.90893 -39.61683 45133 ft 582 kts 107°
2026-04-25 15:33 22.88874 -39.53166 45111 ft 583 kts 103°
2026-04-25 15:34 22.86854 -39.44652 45112 ft 583 kts 106°
2026-04-25 15:34 22.85110 -39.37593 45113 ft 583 kts 105°
2026-04-25 15:35 22.81727 -39.23457 45124 ft 583 kts 105°
2026-04-25 15:36 22.78672 -39.10700 45128 ft 583 kts 105°
2026-04-25 15:36 22.76589 -39.02214 45127 ft 583 kts 105°
2026-04-25 15:37 22.74542 -38.93717 45111 ft 583 kts 105°
2026-04-25 15:37 22.72460 -38.85227 45115 ft 583 kts 105°
2026-04-25 15:38 22.70396 -38.76740 45132 ft 583 kts 105°
2026-04-25 15:38 22.68314 -38.68258 45132 ft 583 kts 105°
2026-04-25 15:39 22.66220 -38.59717 45114 ft 583 kts 105°
2026-04-25 15:39 22.64133 -38.51241 45115 ft 583 kts 106°
2026-04-25 15:40 22.62748 -38.45629 45127 ft 583 kts 106°
2026-04-25 15:40 22.59963 -38.34354 45104 ft 583 kts 106°
2026-04-25 15:41 22.57862 -38.25884 45108 ft 583 kts 106°
2026-04-25 15:41 22.55761 -38.17422 45129 ft 582 kts 106°
2026-04-25 15:42 22.53653 -38.08965 45131 ft 582 kts 106°
2026-04-25 15:42 22.51544 -38.00513 45125 ft 582 kts 106°
2026-04-25 15:43 22.49430 -37.92069 45121 ft 582 kts 106°
2026-04-25 15:43 22.47312 -37.83625 45118 ft 582 kts 106°
2026-04-25 15:44 22.45188 -37.75181 45106 ft 582 kts 106°
2026-04-25 15:44 22.43062 -37.66745 45121 ft 582 kts 106°
2026-04-25 15:45 22.40932 -37.58314 45125 ft 581 kts 106°
2026-04-25 15:45 22.39505 -37.52677 45125 ft 581 kts 106°
2026-04-25 15:46 22.36658 -37.41460 45125 ft 581 kts 106°
2026-04-25 15:46 22.34515 -37.33036 45122 ft 581 kts 106°
2026-04-25 15:47 22.32367 -37.24616 45115 ft 582 kts 107°
2026-04-25 15:47 22.30215 -37.16196 45120 ft 581 kts 107°
2026-04-25 15:48 22.28059 -37.07780 45118 ft 582 kts 107°
2026-04-25 15:48 22.25899 -36.99372 45124 ft 581 kts 107°
2026-04-25 15:49 22.23735 -36.90964 45093 ft 582 kts 107°
2026-04-25 15:49 22.21566 -36.82557 45111 ft 582 kts 107°
2026-04-25 15:50 22.19392 -36.74152 45116 ft 581 kts 107°
2026-04-25 15:50 22.17215 -36.65753 45109 ft 581 kts 107°
2026-04-25 15:51 22.15756 -36.60135 45109 ft 581 kts 107°
2026-04-25 15:51 22.12848 -36.48961 45110 ft 581 kts 107°
2026-04-25 15:52 22.10658 -36.40573 45124 ft 581 kts 107°
2026-04-25 15:52 22.08465 -36.32188 45120 ft 581 kts 107°
2026-04-25 15:53 22.06267 -36.23803 45116 ft 581 kts 107°
2026-04-25 15:53 22.04065 -36.15423 45114 ft 581 kts 107°
2026-04-25 15:54 22.01858 -36.07042 45110 ft 581 kts 107°
2026-04-25 15:54 21.99570 -35.98694 45095 ft 580 kts 111°
2026-04-25 15:55 21.96685 -35.90593 45114 ft 579 kts 114°
2026-04-25 15:55 21.93842 -35.82474 45104 ft 580 kts 112°
2026-04-25 15:56 21.90987 -35.74357 45116 ft 579 kts 113°
2026-04-25 15:56 21.88113 -35.66255 45108 ft 579 kts 112°
2026-04-25 15:57 21.85259 -35.58139 45093 ft 580 kts 113°
2026-04-25 15:57 21.82376 -35.50042 45102 ft 579 kts 112°
2026-04-25 15:58 21.79512 -35.41937 45098 ft 579 kts 113°
2026-04-25 15:58 21.76624 -35.33844 45098 ft 579 kts 113°
2026-04-25 15:59 21.73749 -35.25746 45093 ft 579 kts 113°
2026-04-25 15:59 21.70857 -35.17659 45098 ft 579 kts 113°
2026-04-25 16:00 21.68928 -35.12251 45098 ft 579 kts 113°
2026-04-25 16:00 21.65078 -35.01499 45113 ft 579 kts 113°
2026-04-25 16:01 21.62184 -34.93426 45109 ft 579 kts 113°
2026-04-25 16:01 21.59283 -34.85355 45100 ft 579 kts 113°
2026-04-25 16:02 21.56380 -34.77287 45095 ft 579 kts 113°
2026-04-25 16:02 21.53470 -34.69215 45094 ft 579 kts 113°
2026-04-25 16:03 21.50557 -34.61151 45096 ft 579 kts 113°
2026-04-25 16:03 21.47644 -34.53098 45100 ft 579 kts 113°
2026-04-25 16:04 21.44726 -34.45046 45116 ft 578 kts 113°
2026-04-25 16:04 21.42299 -34.38362 45107 ft 578 kts 113°
2026-04-25 16:05 21.39375 -34.30317 45087 ft 579 kts 113°
2026-04-25 16:06 21.34981 -34.18258 45109 ft 578 kts 113°
2026-04-25 16:06 21.32050 -34.10230 45105 ft 578 kts 113°
2026-04-25 16:07 21.29117 -34.02209 45100 ft 578 kts 113°
2026-04-25 16:07 21.26178 -33.94189 45097 ft 578 kts 113°
2026-04-25 16:08 21.23236 -33.86170 45088 ft 578 kts 113°
2026-04-25 16:08 21.20291 -33.78160 45088 ft 578 kts 113°
2026-04-25 16:09 21.17343 -33.70152 45089 ft 577 kts 113°
2026-04-25 16:09 21.14392 -33.62153 45098 ft 577 kts 113°
2026-04-25 16:10 21.11440 -33.54162 45099 ft 577 kts 113°
2026-04-25 16:10 21.08482 -33.46169 45088 ft 577 kts 113°
2026-04-25 16:11 21.05542 -33.38235 45090 ft 577 kts 114°
2026-04-25 16:11 21.02559 -33.30201 45083 ft 577 kts 114°
2026-04-25 16:12 20.99591 -33.22222 45089 ft 577 kts 114°
2026-04-25 16:12 20.96641 -33.14302 45083 ft 577 kts 114°
2026-04-25 16:13 20.93667 -33.06331 45079 ft 577 kts 114°
2026-04-25 16:13 20.90691 -32.98368 45076 ft 576 kts 114°
2026-04-25 16:14 20.87714 -32.90416 45078 ft 576 kts 114°
2026-04-25 16:14 20.84732 -32.82464 45089 ft 576 kts 114°
2026-04-25 16:15 20.81749 -32.74521 45073 ft 576 kts 114°
2026-04-25 16:15 20.78763 -32.66582 45078 ft 575 kts 114°
2026-04-25 16:16 20.75774 -32.58651 45080 ft 575 kts 114°
2026-04-25 16:16 20.72782 -32.50722 45077 ft 575 kts 114°
2026-04-25 16:17 20.69790 -32.42807 45077 ft 575 kts 114°
2026-04-25 16:17 20.66794 -32.34894 45071 ft 575 kts 114°
2026-04-25 16:18 20.63796 -32.26989 45071 ft 574 kts 114°
2026-04-25 16:18 20.60796 -32.19089 45068 ft 574 kts 114°
2026-04-25 16:19 20.57794 -32.11197 45074 ft 574 kts 114°
2026-04-25 16:19 20.54790 -32.03315 45083 ft 573 kts 114°
2026-04-25 16:20 20.50282 -31.91506 45058 ft 573 kts 115°
2026-04-25 16:21 20.45774 -31.79726 45074 ft 572 kts 115°
2026-04-25 16:21 20.42759 -31.71893 45065 ft 570 kts 116°
2026-04-25 16:22 20.39409 -31.64247 45063 ft 569 kts 118°
2026-04-25 16:22 20.36057 -31.56617 45059 ft 568 kts 117°
2026-04-25 16:23 20.32713 -31.48992 45064 ft 568 kts 118°
2026-04-25 16:23 20.29354 -31.41384 45066 ft 567 kts 118°
2026-04-25 16:24 20.26007 -31.33772 45055 ft 567 kts 118°
2026-04-25 16:24 20.22647 -31.26178 45056 ft 567 kts 118°
2026-04-25 16:25 20.19296 -31.18586 45052 ft 566 kts 118°
2026-04-25 16:25 20.15938 -31.11010 45056 ft 566 kts 118°
2026-04-25 16:26 20.12583 -31.03437 45053 ft 566 kts 118°
2026-04-25 16:26 20.09222 -30.95871 45080 ft 565 kts 118°
2026-04-25 16:27 20.05862 -30.88311 45065 ft 565 kts 118°
2026-04-25 16:27 20.02501 -30.80763 45055 ft 564 kts 118°
2026-04-25 16:28 19.99142 -30.73228 45054 ft 564 kts 118°
2026-04-25 16:28 19.95783 -30.65703 45054 ft 563 kts 118°
2026-04-25 16:29 19.92422 -30.58185 45047 ft 563 kts 118°
2026-04-25 16:29 19.89065 -30.50686 45048 ft 562 kts 118°
2026-04-25 16:30 19.85728 -30.43241 45046 ft 562 kts 118°
2026-04-25 16:30 19.82367 -30.35753 45049 ft 561 kts 118°
2026-04-25 16:31 19.78983 -30.28225 45048 ft 561 kts 118°
2026-04-25 16:31 19.75620 -30.20753 45044 ft 561 kts 118°
2026-04-25 16:32 19.72257 -30.13290 45047 ft 560 kts 118°
2026-04-25 16:32 19.68892 -30.05835 45058 ft 560 kts 118°
2026-04-25 16:33 19.65527 -29.98388 45056 ft 560 kts 118°
2026-04-25 16:33 19.62159 -29.90944 45061 ft 560 kts 118°
2026-04-25 16:34 19.58786 -29.83500 45037 ft 560 kts 118°
2026-04-25 16:34 19.55409 -29.76057 45040 ft 560 kts 118°
2026-04-25 16:35 19.52599 -29.69871 45033 ft 560 kts 118°
2026-04-25 16:35 19.48645 -29.61177 45037 ft 561 kts 118°
2026-04-25 16:36 19.45255 -29.53736 45032 ft 561 kts 119°
2026-04-25 16:36 19.41864 -29.46299 45049 ft 561 kts 119°
2026-04-25 16:37 19.38490 -29.38911 45037 ft 561 kts 119°
2026-04-25 16:37 19.35089 -29.31474 45034 ft 561 kts 119°
2026-04-25 16:38 19.31684 -29.24037 45033 ft 561 kts 119°
2026-04-25 16:38 19.28276 -29.16604 45040 ft 561 kts 119°
2026-04-25 16:39 19.24864 -29.09171 45033 ft 561 kts 119°
2026-04-25 16:39 19.21449 -29.01742 45034 ft 561 kts 119°
2026-04-25 16:40 19.18032 -28.94318 45036 ft 561 kts 119°
2026-04-25 16:40 19.14612 -28.86898 45030 ft 561 kts 119°
2026-04-25 16:41 19.11191 -28.79485 45031 ft 561 kts 119°
2026-04-25 16:41 19.06056 -28.68374 45040 ft 561 kts 119°
2026-04-25 16:42 19.02628 -28.60969 45024 ft 561 kts 119°
2026-04-25 16:42 18.99199 -28.53570 45022 ft 560 kts 119°
2026-04-25 16:43 18.95769 -28.46178 45027 ft 560 kts 119°
2026-04-25 16:43 18.92339 -28.38797 45016 ft 560 kts 119°
2026-04-25 16:44 18.88905 -28.31416 45011 ft 560 kts 119°
2026-04-25 16:44 18.85473 -28.24050 45018 ft 559 kts 119°
2026-04-25 16:45 18.82039 -28.16687 45015 ft 559 kts 119°
2026-04-25 16:45 18.78604 -28.09333 45026 ft 558 kts 119°
2026-04-25 16:46 18.75168 -28.01985 45009 ft 558 kts 119°
2026-04-25 16:46 18.72870 -27.97074 45002 ft 558 kts 119°
2026-04-25 16:47 18.68295 -27.87314 45011 ft 557 kts 119°
2026-04-25 16:47 18.64858 -27.79991 45012 ft 557 kts 119°
2026-04-25 16:48 18.61420 -27.72675 45005 ft 557 kts 119°
2026-04-25 16:48 18.57982 -27.65366 45008 ft 556 kts 119°
2026-04-25 16:49 18.55122 -27.59296 45012 ft 556 kts 119°
2026-04-25 16:49 18.51681 -27.51998 45012 ft 556 kts 119°
2026-04-25 16:50 18.48235 -27.44697 45014 ft 556 kts 119°
2026-04-25 16:50 18.44784 -27.37399 45015 ft 556 kts 119°
2026-04-25 16:51 18.41332 -27.30105 45008 ft 557 kts 119°
2026-04-25 16:51 18.38436 -27.23992 45019 ft 556 kts 119°
2026-04-25 16:52 18.34417 -27.15518 45010 ft 557 kts 119°
2026-04-25 16:52 18.30954 -27.08229 44989 ft 557 kts 119°
2026-04-25 16:53 18.25756 -26.97301 45004 ft 557 kts 119°
2026-04-25 16:54 18.22288 -26.90021 45009 ft 557 kts 119°
2026-04-25 16:54 18.18817 -26.82744 45013 ft 556 kts 119°
2026-04-25 16:55 18.15345 -26.75473 45007 ft 556 kts 119°
2026-04-25 16:55 18.11870 -26.68205 45001 ft 556 kts 119°
2026-04-25 16:56 18.08393 -26.60940 45004 ft 556 kts 119°
2026-04-25 16:56 18.04913 -26.53679 44997 ft 556 kts 119°
2026-04-25 16:57 18.01429 -26.46417 44988 ft 556 kts 119°
2026-04-25 16:57 17.97942 -26.39158 44983 ft 556 kts 119°
2026-04-25 16:58 17.94454 -26.31905 44987 ft 556 kts 119°
2026-04-25 16:58 17.90962 -26.24653 44989 ft 556 kts 119°
2026-04-25 16:59 17.87469 -26.17407 44997 ft 556 kts 119°
2026-04-25 16:59 17.83974 -26.10165 44987 ft 556 kts 119°
2026-04-25 17:00 17.80473 -26.02919 44977 ft 557 kts 119°
2026-04-25 17:00 17.76789 -25.95794 44979 ft 555 kts 121°
2026-04-25 17:01 17.73099 -25.88668 44978 ft 556 kts 121°
2026-04-25 17:01 17.69389 -25.81567 44977 ft 555 kts 121°
2026-04-25 17:02 17.65688 -25.74455 44982 ft 555 kts 121°
2026-04-25 17:02 17.61977 -25.67355 44993 ft 555 kts 121°
2026-04-25 17:03 17.58269 -25.60252 44987 ft 556 kts 121°
2026-04-25 17:03 17.54554 -25.53154 44971 ft 555 kts 121°
2026-04-25 17:04 17.50840 -25.46060 44974 ft 555 kts 121°
2026-04-25 17:04 17.47124 -25.38974 44972 ft 555 kts 122°
2026-04-25 17:05 17.43408 -25.31893 44977 ft 555 kts 122°
2026-04-25 17:05 17.37832 -25.21282 44978 ft 554 kts 122°
2026-04-25 17:06 17.34115 -25.14219 44981 ft 554 kts 122°
2026-04-25 17:06 17.30398 -25.07165 44986 ft 553 kts 122°
2026-04-25 17:07 17.26680 -25.00116 44948 ft 552 kts 120°
2026-04-25 17:07 17.22973 -24.93091 44993 ft 552 kts 120°
2026-04-25 17:08 17.19262 -24.86070 44977 ft 552 kts 120°
2026-04-25 17:08 17.15549 -24.79051 44977 ft 551 kts 120°
2026-04-25 17:09 17.11858 -24.72083 44973 ft 551 kts 120°
2026-04-25 17:09 17.08141 -24.65072 44978 ft 551 kts 120°
2026-04-25 17:10 17.04425 -24.58070 44975 ft 551 kts 120°
2026-04-25 17:10 17.00708 -24.51073 44973 ft 550 kts 120°
2026-04-25 17:11 16.96990 -24.44083 44952 ft 550 kts 120°
2026-04-25 17:11 16.93274 -24.37102 44959 ft 550 kts 120°
2026-04-25 17:12 16.89558 -24.30130 44966 ft 549 kts 120°
2026-04-25 17:12 16.85844 -24.23167 44964 ft 549 kts 120°
2026-04-25 17:13 16.83359 -24.18514 44966 ft 548 kts 120°
2026-04-25 17:13 16.78416 -24.09264 44961 ft 548 kts 120°
2026-04-25 17:14 16.74698 -24.02318 44964 ft 548 kts 120°
2026-04-25 17:14 16.70987 -23.95389 44964 ft 547 kts 120°
2026-04-25 17:15 16.67273 -23.88462 44962 ft 547 kts 120°
2026-04-25 17:15 16.63559 -23.81542 44958 ft 546 kts 120°
2026-04-25 17:16 16.59844 -23.74629 44954 ft 546 kts 120°
2026-04-25 17:16 16.56131 -23.67723 44953 ft 546 kts 120°
2026-04-25 17:17 16.52417 -23.60826 44953 ft 546 kts 120°
2026-04-25 17:17 16.48702 -23.53931 44953 ft 545 kts 120°
2026-04-25 17:18 16.44988 -23.47046 44948 ft 545 kts 120°
2026-04-25 17:18 16.41271 -23.40162 44958 ft 545 kts 120°
2026-04-25 17:19 16.37555 -23.33286 44954 ft 545 kts 120°
2026-04-25 17:19 16.33837 -23.26415 44950 ft 545 kts 121°
2026-04-25 17:20 16.30118 -23.19547 44940 ft 545 kts 121°
2026-04-25 17:20 16.26396 -23.12680 44945 ft 544 kts 121°
2026-04-25 17:21 16.22674 -23.05822 44942 ft 544 kts 121°
2026-04-25 17:21 16.18951 -22.98967 44939 ft 544 kts 121°
2026-04-25 17:22 16.16483 -22.94426 44939 ft 544 kts 121°
2026-04-25 17:22 16.11513 -22.85255 44946 ft 544 kts 120°
2026-04-25 17:23 16.07892 -22.78344 44941 ft 544 kts 120°
2026-04-25 17:23 16.04212 -22.71476 44942 ft 544 kts 120°
2026-04-25 17:24 16.00593 -22.64638 44940 ft 544 kts 120°
2026-04-25 17:24 15.96925 -22.57766 44945 ft 543 kts 120°
2026-04-25 17:25 15.93267 -22.50894 44936 ft 543 kts 120°
2026-04-25 17:25 15.89605 -22.44033 44933 ft 543 kts 120°
2026-04-25 17:26 15.85945 -22.37177 44932 ft 543 kts 120°
2026-04-25 17:26 15.82284 -22.30328 44930 ft 542 kts 120°
2026-04-25 17:27 15.78625 -22.23488 44928 ft 542 kts 120°
2026-04-25 17:27 15.76176 -22.18914 44933 ft 541 kts 121°
2026-04-25 17:28 15.71281 -22.09780 44931 ft 541 kts 121°
2026-04-25 17:28 15.67622 -22.02959 44930 ft 541 kts 121°
2026-04-25 17:29 15.63964 -21.96147 44926 ft 540 kts 121°
2026-04-25 17:29 15.60307 -21.89342 44920 ft 540 kts 121°
2026-04-25 17:30 15.56646 -21.82538 44914 ft 540 kts 121°
2026-04-25 17:30 15.53012 -21.75788 44915 ft 540 kts 121°
2026-04-25 17:31 15.49326 -21.68951 44915 ft 539 kts 121°
2026-04-25 17:31 15.46285 -21.63312 44916 ft 539 kts 121°
2026-04-25 17:32 15.42626 -21.56535 44918 ft 538 kts 121°
2026-04-25 17:32 15.38969 -21.49769 44916 ft 538 kts 121°
2026-04-25 17:33 15.35313 -21.43009 44910 ft 537 kts 121°
2026-04-25 17:33 15.31660 -21.36261 44908 ft 537 kts 121°
2026-04-25 17:34 15.28005 -21.29516 44909 ft 537 kts 121°
2026-04-25 17:34 15.24351 -21.22778 44909 ft 536 kts 121°
2026-04-25 17:35 15.20698 -21.16048 44910 ft 536 kts 121°
2026-04-25 17:35 15.17045 -21.09325 44905 ft 535 kts 121°
2026-04-25 17:36 15.13394 -21.02612 44904 ft 535 kts 121°
2026-04-25 17:36 15.09746 -20.95908 44904 ft 534 kts 121°
2026-04-25 17:37 15.06096 -20.89209 44900 ft 534 kts 121°
2026-04-25 17:37 15.02450 -20.82522 44900 ft 533 kts 121°
2026-04-25 17:38 14.99421 -20.76970 44904 ft 533 kts 121°
2026-04-25 17:38 14.95161 -20.69171 44898 ft 533 kts 121°
2026-04-25 17:39 14.91517 -20.62505 44897 ft 532 kts 121°
2026-04-25 17:39 14.87874 -20.55847 44898 ft 532 kts 121°
2026-04-25 17:40 14.84231 -20.49194 44897 ft 531 kts 121°
2026-04-25 17:40 14.80614 -20.42596 44895 ft 531 kts 121°
2026-04-25 17:41 14.76950 -20.35915 44886 ft 531 kts 121°
2026-04-25 17:41 14.73334 -20.29330 44891 ft 530 kts 121°
2026-04-25 17:42 14.69703 -20.22709 44888 ft 530 kts 121°
2026-04-25 17:42 14.66982 -20.15634 44889 ft 532 kts 108°
2026-04-25 17:43 14.64807 -20.08342 44895 ft 531 kts 110°
2026-04-25 17:43 14.62382 -20.01143 44905 ft 531 kts 109°
2026-04-25 17:44 14.60134 -19.93880 44887 ft 531 kts 109°
2026-04-25 17:44 14.57762 -19.86662 44882 ft 531 kts 110°
2026-04-25 17:45 14.55854 -19.80644 44884 ft 531 kts 109°
2026-04-25 17:45 14.53122 -19.72201 44893 ft 530 kts 110°
2026-04-25 17:46 14.50954 -19.64931 44875 ft 531 kts 104°
2026-04-25 17:46 14.48859 -19.57656 44882 ft 528 kts 112°
2026-04-25 17:47 14.46028 -19.50674 44893 ft 527 kts 115°
2026-04-25 17:47 14.43043 -19.43766 44793 ft 529 kts 116°
2026-04-25 17:48 14.40117 -19.36722 43353 ft 537 kts 110°
2026-04-25 17:48 14.39192 -19.32984 42622 ft 539 kts 101°
2026-04-25 17:48 14.38792 -19.29187 41940 ft 525 kts 92°
2026-04-25 17:49 14.38929 -19.25503 41632 ft 507 kts 84°
2026-04-25 17:49 14.39369 -19.21900 41176 ft 506 kts 81°
2026-04-25 17:49 14.39885 -19.18323 40739 ft 503 kts 81°
2026-04-25 17:49 14.40237 -19.14741 40273 ft 501 kts 87°
2026-04-25 17:50 14.40101 -19.11165 39811 ft 498 kts 96°
2026-04-25 17:50 14.39441 -19.07669 39365 ft 496 kts 105°
2026-04-25 17:50 14.38304 -19.04328 38895 ft 493 kts 113°
2026-04-25 17:50 14.36884 -19.01121 38439 ft 490 kts 116°
2026-04-25 17:51 14.35425 -18.98053 37927 ft 487 kts 116°
2026-04-25 17:51 14.34071 -18.94863 37384 ft 483 kts 112°
2026-04-25 17:51 14.32923 -18.91622 36870 ft 479 kts 109°
2026-04-25 17:51 14.31777 -18.88412 36365 ft 476 kts 111°
2026-04-25 17:52 14.30498 -18.85278 35891 ft 472 kts 114°
2026-04-25 17:52 14.29634 -18.83228 35642 ft 470 kts 113°
2026-04-25 17:52 14.28001 -18.79059 35139 ft 467 kts 110°
2026-04-25 17:52 14.26834 -18.75944 34774 ft 465 kts 111°
2026-04-25 17:53 14.25625 -18.72864 34402 ft 462 kts 112°
2026-04-25 17:53 14.24394 -18.69811 34053 ft 460 kts 112°
2026-04-25 17:53 14.23193 -18.66761 33674 ft 458 kts 111°
2026-04-25 17:53 14.22021 -18.63725 33277 ft 455 kts 111°
2026-04-25 17:54 14.20844 -18.60712 32876 ft 452 kts 111°
2026-04-25 17:54 14.19659 -18.57723 32480 ft 449 kts 111°
2026-04-25 17:54 14.18484 -18.54747 32094 ft 447 kts 111°
2026-04-25 17:54 14.17326 -18.51788 31711 ft 444 kts 111°
2026-04-25 17:55 14.16173 -18.48847 31420 ft 441 kts 111°
2026-04-25 17:55 14.15016 -18.45911 30862 ft 442 kts 111°
2026-04-25 17:55 14.13863 -18.42988 30282 ft 438 kts 111°
2026-04-25 17:55 14.12724 -18.40095 29668 ft 433 kts 111°
2026-04-25 17:56 14.11608 -18.37258 29110 ft 425 kts 111°
2026-04-25 17:56 14.10500 -18.34447 28543 ft 420 kts 111°
2026-04-25 17:56 14.09407 -18.31677 28003 ft 415 kts 111°
2026-04-25 17:56 14.08325 -18.28934 27461 ft 411 kts 111°
2026-04-25 17:57 14.07271 -18.26260 26930 ft 406 kts 111°
2026-04-25 17:57 14.06197 -18.23542 26389 ft 402 kts 111°
2026-04-25 17:57 14.05150 -18.20889 25858 ft 397 kts 111°
2026-04-25 17:57 14.04813 -18.20035 25696 ft 396 kts 111°
2026-04-25 17:58 14.03088 -18.15671 24836 ft 390 kts 111°
2026-04-25 17:58 14.02085 -18.13134 24334 ft 386 kts 111°
2026-04-25 17:58 14.01077 -18.10583 23828 ft 383 kts 111°
2026-04-25 17:58 14.00076 -18.08053 23302 ft 380 kts 111°
2026-04-25 17:59 13.99085 -18.05549 22776 ft 376 kts 112°
2026-04-25 17:59 13.98101 -18.03063 22280 ft 374 kts 112°
2026-04-25 17:59 13.97125 -18.00596 21794 ft 372 kts 112°
2026-04-25 17:59 13.96284 -17.98098 21278 ft 369 kts 100°
2026-04-25 18:00 13.96402 -17.95497 20865 ft 364 kts 74°
2026-04-25 18:00 13.97556 -17.93217 20436 ft 359 kts 51°
2026-04-25 18:00 13.99199 -17.91296 20048 ft 357 kts 44°
2026-04-25 18:00 14.00884 -17.89411 19600 ft 358 kts 46°
2026-04-25 18:01 14.02433 -17.87414 19132 ft 357 kts 52°
2026-04-25 18:01 14.03672 -17.85206 18652 ft 356 kts 63°
2026-04-25 18:01 14.04598 -17.82854 18201 ft 355 kts 68°
2026-04-25 18:01 14.05461 -17.80481 17699 ft 352 kts 68°
2026-04-25 18:02 14.06442 -17.78179 17234 ft 348 kts 63°
2026-04-25 18:02 14.07505 -17.75949 16777 ft 346 kts 63°
2026-04-25 18:02 14.08518 -17.73709 16330 ft 344 kts 65°
2026-04-25 18:02 14.09475 -17.71458 15865 ft 342 kts 66°
2026-04-25 18:03 14.10436 -17.69236 15428 ft 339 kts 65°
2026-04-25 18:03 14.11417 -17.67035 14976 ft 336 kts 65°
2026-04-25 18:03 14.12387 -17.64848 14534 ft 334 kts 65°
2026-04-25 18:03 14.13339 -17.62672 14094 ft 332 kts 66°
2026-04-25 18:04 14.14285 -17.60512 13658 ft 329 kts 66°
2026-04-25 18:04 14.15225 -17.58375 13194 ft 326 kts 66°
2026-04-25 18:04 14.16158 -17.56258 12772 ft 322 kts 66°
2026-04-25 18:04 14.17470 -17.54405 12193 ft 322 kts 42°
2026-04-25 18:05 14.19231 -17.53074 11807 ft 317 kts 33°
2026-04-25 18:05 14.21074 -17.51856 11477 ft 314 kts 32°
2026-04-25 18:05 14.22858 -17.50555 11134 ft 313 kts 37°
2026-04-25 18:05 14.24551 -17.49163 10833 ft 310 kts 39°
2026-04-25 18:06 14.26248 -17.47795 10537 ft 309 kts 37°
2026-04-25 18:06 14.27968 -17.46476 10244 ft 308 kts 36°
2026-04-25 18:06 14.29678 -17.45163 9946 ft 305 kts 37°
2026-04-25 18:06 14.31366 -17.43840 9645 ft 304 kts 38°
2026-04-25 18:07 14.33037 -17.42527 9314 ft 301 kts 37°
2026-04-25 18:07 14.34699 -17.41231 8991 ft 298 kts 37°
2026-04-25 18:07 14.36348 -17.39946 8672 ft 296 kts 37°
2026-04-25 18:07 14.37982 -17.38671 8353 ft 294 kts 36°
2026-04-25 18:08 14.39608 -17.37400 7895 ft 294 kts 36°
2026-04-25 18:08 14.41223 -17.36138 7280 ft 289 kts 35°
2026-04-25 18:08 14.42801 -17.34905 6846 ft 281 kts 35°
2026-04-25 18:08 14.44351 -17.33694 6453 ft 278 kts 34°
2026-04-25 18:09 14.45889 -17.32493 6056 ft 277 kts 34°
2026-04-25 18:09 14.47322 -17.31190 5583 ft 277 kts 48°
2026-04-25 18:09 14.48193 -17.29426 5106 ft 274 kts 63°
2026-04-25 18:09 14.48503 -17.28853 4944 ft 273 kts 56°
2026-04-25 18:10 14.49125 -17.25871 4068 ft 239 kts 100°
2026-04-25 18:10 14.48521 -17.24249 3829 ft 236 kts 109°
2026-04-25 18:10 14.47622 -17.22847 3569 ft 239 kts 127°
2026-04-25 18:10 14.46455 -17.21588 3195 ft 247 kts 134°
2026-04-25 18:11 14.45172 -17.20389 2928 ft 247 kts 136°
2026-04-25 18:11 14.43929 -17.19233 2928 ft 236 kts 133°
2026-04-25 18:11 14.42896 -17.17947 2897 ft 231 kts 119°
2026-04-25 18:11 14.42216 -17.16474 2987 ft 226 kts 109°
2026-04-25 18:12 14.41594 -17.14925 3111 ft 237 kts 110°
2026-04-25 18:12 14.40867 -17.13372 3114 ft 242 kts 114°
2026-04-25 18:12 14.40090 -17.11834 3104 ft 243 kts 114°
2026-04-25 18:12 14.39764 -17.10177 3032 ft 234 kts 83°
2026-04-25 18:13 14.40256 -17.08619 3079 ft 228 kts 57°
2026-04-25 18:13 14.41372 -17.07505 3080 ft 216 kts 29°
2026-04-25 18:13 14.42721 -17.07095 3096 ft 206 kts
2026-04-25 18:14 14.45607 -17.07086 3119 ft 205 kts 359°
2026-04-25 18:14 14.46956 -17.07099 3098 ft 189 kts 359°
2026-04-25 18:14 14.48258 -17.07110 3111 ft 184 kts 359°
2026-04-25 18:14 14.49517 -17.07122 3099 ft 178 kts 360°
2026-04-25 18:15 14.50742 -17.07134 3039 ft 176 kts 359°
2026-04-25 18:15 14.51979 -17.07147 2817 ft 179 kts 360°
2026-04-25 18:15 14.52805 -17.07154 2656 ft 169 kts 360°
2026-04-25 18:15 14.53905 -17.07165 2439 ft 152 kts
2026-04-25 18:16 14.54945 -17.07174 2269 ft 147 kts
2026-04-25 18:16 14.55968 -17.07181 2082 ft 147 kts 359°
2026-04-25 18:16 14.57938 -17.07200 1750 ft 135 kts
2026-04-25 18:17 14.58840 -17.07251 1522 ft 128 kts 356°
2026-04-25 18:17 14.59721 -17.07281 1293 ft 127 kts 358°
2026-04-25 18:17 14.60585 -17.07294 1128 ft 121 kts 359°
2026-04-25 18:17 14.61446 -17.07294 986 ft 129 kts
2026-04-25 18:18 14.62351 -17.07267 873 ft 129 kts
2026-04-25 18:18 14.63238 -17.07270 754 ft 126 kts 359°
2026-04-25 18:18 14.64107 -17.07272 587 ft 124 kts
2026-04-25 18:18 14.64962 -17.07267 423 ft 121 kts 359°
2026-04-25 18:19 14.65784 -17.07274 326 ft 116 kts 359°
2026-04-25 18:19 14.66511 -17.07279 298 ft 90 kts 360°
2026-04-25 18:19 14.67052 -17.07283 299 ft 67 kts 359°
2026-04-25 18:19 14.67480 -17.07288 296 ft 51 kts 359°
2026-04-25 18:20 14.67730 -17.07230 300 ft 25 kts 27°
2026-04-25 18:20 14.67813 -17.07183 297 ft 2 kts 30°
2026-04-25 18:20 14.67822 -17.07178 297 ft 3 kts 30°
2026-04-25 18:20 14.67860 -17.07155 297 ft 9 kts 30°
2026-04-25 18:21 14.67970 -17.07106 299 ft 25 kts
2026-04-25 18:21 14.68144 -17.07105 298 ft 25 kts 359°
2026-04-25 18:21 14.68311 -17.07107 298 ft 23 kts 360°
2026-04-25 18:21 14.68471 -17.07107 298 ft 22 kts
2026-04-25 18:22 14.68622 -17.07108 298 ft 21 kts 359°
2026-04-25 18:22 14.68683 -17.07053 300 ft 20 kts 80°
2026-04-25 18:22 14.68751 -17.06903 299 ft 17 kts 11°
2026-04-25 18:22 14.68869 -17.06898 299 ft 17 kts
2026-04-25 18:23 14.68982 -17.06898 299 ft 16 kts 359°
2026-04-25 18:23 14.69071 -17.06949 299 ft 16 kts 289°
2026-04-25 18:23 14.69159 -17.06991 299 ft 14 kts
2026-04-25 18:23 14.69193 -17.06926 299 ft 8 kts 88°
2026-04-25 18:24 14.69193 -17.06914 299 ft 0 kts 90°